User: anonymous   Login
Location: Linz
(48.3300°N, 14.3000°E)
Time: 09:59:20
(UTC+02:00)
Language:

YUBILEINY - Orbit

View from above orbital plane
View from above orbital plane
View from above satellite
View from above satellite

Ground track
Ground track

The orbit data is extracted from the following two-line orbital elements,

1 32953U 08025A   19292.06050755  .00000020  00000-0  75656-4 0  9993
2 32953  82.5009  68.6534 0018963 220.7714 139.1948 12.43091859517516
Epoch (UTC): 19 October 2019 01:27:07
Eccentricity: 0.0018963
inclination: 82.5009°
perigee height: 1478 km
apogee height: 1508 km
right ascension of ascending node: 68.6534°
argument of perigee: 220.7714°
revolutions per day: 12.43091859
mean anomaly at epoch: 139.1948°
orbit number at epoch: 51751

The dashed part of the orbit path shows where the satellite is in the earth's shadow,  

DLR